This is the latest recevied weather packets stored in our database for station/object KI5PFS. If no packets are shown the sender has not sent any weather packets the latest 10 day(s).
| Time | Temp. | Humidity | Pressure | Rain* | Wind** | Luminosity | Snow |
|---|---|---|---|---|---|---|---|
| 1787805603 | 30° C | 57% | 1010.9 hPa | 0 mm | - | - | - |
| 1787805003 | 30° C | 56% | 1011 hPa | 0 mm | - | - | - |
| 1787804403 | 31.11° C | 55% | 1011.1 hPa | 0 mm | - | - | - |
| 1787803804 | 31.11° C | 54% | 1011 hPa | 0 mm | - | - | - |
| 1787803203 | 31.11° C | 53% | 1011 hPa | 0 mm | - | - | - |
| 1787802604 | 32.22° C | 52% | 1011 hPa | 0 mm | - | - | - |
| 1787802004 | 32.22° C | 52% | 1010.9 hPa | 0 mm | - | - | - |
| 1787801403 | 32.22° C | 51% | 1010.9 hPa | 0 mm | - | - | - |
| 1787800803 | 32.22° C | 50% | 1010.8 hPa | 0 mm | - | - | - |
| 1787800203 | 32.22° C | 49% | 1010.6 hPa | 0 mm | - | - | - |
| 1787799603 | 32.78° C | 48% | 1010.5 hPa | 0 mm | - | - | - |
| 1787799004 | 32.78° C | 48% | 1010.4 hPa | 0 mm | - | - | - |
| 1787798403 | 32.78° C | 47% | 1010.2 hPa | 0 mm | - | - | - |
| 1787797803 | 32.78° C | 47% | 1010.1 hPa | 0 mm | - | - | - |
| 1787797204 | 32.78° C | 47% | 1009.9 hPa | 0 mm | - | - | - |
| 1787796603 | 32.78° C | 46% | 1009.7 hPa | 0 mm | - | - | - |
| 1787796003 | 32.78° C | 48% | 1009.4 hPa | 0 mm | - | - | - |
| 1787795404 | 32.78° C | 49% | 1009.3 hPa | 0 mm | - | - | - |
| 1787794804 | 33.89° C | 49% | 1009.1 hPa | 0 mm | - | - | - |
| 1787794203 | 33.89° C | 48% | 1009 hPa | 0 mm | - | - | - |
| 1787793603 | 33.89° C | 49% | 1008.7 hPa | 0 mm | - | - | - |
| 1787793008 | 35° C | 47% | 1008.7 hPa | 0 mm | - | - | - |
| 1787792403 | 35° C | 44% | 1008.7 hPa | 0 mm | - | - | - |
| 1787791803 | 35° C | 44% | 1008.6 hPa | 0 mm | - | - | - |
| 1787791203 | 35° C | 44% | 1008.5 hPa | 0 mm | - | - | - |
* Rain latest hour (hover to see other rain measurements)
** Current wind speed in m/s (hover to see current wind gust speed)